Regional Weather Roundup
Issued by NWS Albany, NY

Current Version | Previous Version | Graphics & Text | Print | Product List | Glossary Off
Versions: 1 2 3 4 5 6 7 8 9 10 11 12 13 14 15 16 17 18 19 20 21 22 23 24 25 26 27 28

000
ASUS41 KALY 311210
RWRALY

NEW YORK STATE HOURLY WEATHER ROUNDUP
NATIONAL WEATHER SERVICE ALBANY NY
800 AM EDT WED AUG 31 2016

NOTE: "FAIR" INDICATES FEW OR NO CLOUDS BELOW 12,000 FEET WITH NO
SIGNIFICANT WEATHER AND/OR NO OBSTRUCTIONS TO VISIBILITY.

NYZ032-033-038>043-046>054-057>066-NYZ062>081-082-084-311300-
EAST


CITY           SKY/WX    TMP DP  RH WIND       PRES   REMARKS
ALBANY         CLOUDY    66  60  81 S6        29.98F
GLENS FALLS    PTSUNNY   65  60  84 S6        29.97S
POUGHKEEPSIE   CLOUDY    67  66  97 S3        30.00S
NEWBURGH       CLOUDY    68  68 100 VRB6      30.03S FOG
MONTGOMERY     LGT RAIN  68  67  96 SW6       30.01F VSB 1/2
WHITE PLAINS   MOSUNNY   73  70  90 W8        30.01F
ISLIP          PTSUNNY   75  72  90 W7        30.01S
NEW YORK CITY  PTSUNNY   78  70  76 SW9       30.00F
CENTRAL PARK   CLOUDY    76  69  79 VRB3      30.04S
$$

NYZ005>009-017-018-044>046-055-056-311300-
CENTRAL


CITY           SKY/WX    TMP DP  RH WIND       PRES   REMARKS
FULTON         LGT RAIN  68  63  84 SW9       29.96S
SYRACUSE       CLOUDY    67  61  81 S5        29.95F
ROME           CLOUDY    64  61  90 CALM      29.97S
ELMIRA         CLOUDY    64  61  90 CALM      30.00S
BINGHAMTON     CLOUDY    65  59  81 SW7       30.02F
MONTICELLO     CLOUDY    61  57  88 CALM      30.06S
$$

NYZ026>034-041>043-087-311300-
NORTH


CITY           SKY/WX    TMP DP  RH WIND       PRES   REMARKS
WATERTOWN      LGT RAIN  65  63  93 CALM      29.94R FOG
FORT DRUM      NOT AVBL
MASSENA        PTSUNNY   67  62  84 SW5       29.90F
SARANAC LAKE   CLOUDY    65  57  75 CALM      29.97S
PLATTSBURGH    CLOUDY    66  64  93 SE5       29.92S
$$

NYZ001>004-010>016-019>021-085-311300-
WEST


CITY           SKY/WX    TMP DP  RH WIND       PRES   REMARKS
NIAGARA FALLS  LGT RAIN  71  67  87 S6        29.96S
BUFFALO        HVY RAIN  68  66  93 CALM      29.98S FOG
DUNKIRK        PTSUNNY   70  61  73 S9        29.98R
JAMESTOWN      CLOUDY    64  55  72 SW6       30.03S
WELLSVILLE     CLOUDY    67  56  67 SW6       30.06S
ROCHESTER      RAIN      67  65  93 SW8       29.98S FOG
PENN YAN       LGT RAIN  68  62  81 CALM      30.00R
$$

             KEY
       WCI = WIND CHILL INDEX
       VSB = VISIBILITY
       HX  = HEAT INDEX
$$




USA.gov is the U.S. government's official web portal to all federal, state and local government web resources and services.